TimeCEST,TemperatureF,Dew PointF,Humidity,Sea Level PressureIn,VisibilityMPH,Wind Direction,Wind SpeedMPH,Gust SpeedMPH,PrecipitationIn,Events,Conditions,WindDirDegrees,DateUTC
12:55 AM,42.8,41.0,93,30.18,0.4,SW,6.9,-,N/A,Fog,Fog,220,2012-10-06 22:55:00
1:55 AM,42.8,42.8,100,30.18,0.0,SSW,3.5,-,N/A,Fog,Fog,200,2012-10-06 23:55:00
2:00 AM,43,43,100,,0,SSW,3.5,,,Fog,Heavy Fog,200,2012-10-07 00:00:00
2:55 AM,42.8,42.8,100,30.18,0.0,West,3.5,-,N/A,Fog,Fog,260,2012-10-07 00:55:00
3:55 AM,42.8,42.8,100,30.15,0.0,SW,4.6,-,N/A,Fog,Fog,220,2012-10-07 01:55:00
4:55 AM,42.8,42.8,100,30.12,0.0,SW,9.2,-,N/A,Fog,Fog,220,2012-10-07 02:55:00
5:00 AM,43,43,99,,0,SW,9.2,,,Fog,Heavy Fog,220,2012-10-07 03:00:00
5:55 AM,42.8,42.8,100,30.09,0.0,SSW,9.2,-,N/A,Fog,Fog,210,2012-10-07 03:55:00
6:55 AM,42.8,42.8,100,30.09,0.0,South,11.5,-,N/A,Fog,Fog,190,2012-10-07 04:55:00
7:55 AM,41.0,41.0,100,30.09,0.0,SW,13.8,-,N/A,Fog,Fog,220,2012-10-07 05:55:00
8:00 AM,42,42,99,,0,SW,13.8,,,Fog,Heavy Fog,220,2012-10-07 06:00:00
8:55 AM,42.8,42.8,100,30.06,0.0,SW,11.5,-,N/A,Fog,Fog,220,2012-10-07 06:55:00
9:55 AM,42.8,42.8,100,30.06,0.0,West,9.2,-,N/A,Fog,Fog,260,2012-10-07 07:55:00
10:55 AM,44.6,44.6,100,30.06,0.0,SW,11.5,-,N/A,Fog,Fog,220,2012-10-07 08:55:00
11:00 AM,44,44,99,,0,SW,11.5,,,Fog,Heavy Fog,220,2012-10-07 09:00:00
11:55 AM,44.6,44.6,100,30.06,0.0,SW,11.5,-,N/A,Fog,Fog,220,2012-10-07 09:55:00
12:55 PM,44.6,44.6,100,30.06,0.0,WSW,8.1,-,N/A,Fog,Fog,250,2012-10-07 10:55:00
1:55 PM,46.4,46.4,100,30.06,0.0,WSW,10.4,-,N/A,Fog,Fog,240,2012-10-07 11:55:00
2:00 PM,46,46,98,,0,WSW,10.4,,,Fog,Heavy Fog,240,2012-10-07 12:00:00
2:55 PM,44.6,44.6,100,30.06,0.0,WSW,11.5,-,N/A,Fog,Fog,240,2012-10-07 12:55:00
3:55 PM,48.2,48.2,100,30.04,0.0,WSW,4.6,-,N/A,Fog,Fog,250,2012-10-07 13:55:00
4:55 PM,48.2,44.6,87,30.04,0.6,NW,2.3,-,N/A,Fog,Fog,310,2012-10-07 14:55:00
5:00 PM,48,45,87,,1,NW,2.3,,,Fog,Heavy Fog,310,2012-10-07 15:00:00
5:55 PM,46.4,41.0,81,30.04,0.6,NE,8.1,-,N/A,Fog,Fog,40,2012-10-07 15:55:00
6:55 PM,46.4,42.8,87,30.06,6.2,North,12.7,-,N/A,,Scattered Clouds,360,2012-10-07 16:55:00
7:55 PM,44.6,44.6,100,30.06,0.0,NNE,11.5,-,N/A,Fog,Fog,30,2012-10-07 17:55:00
8:55 PM,41.0,39.2,93,30.06,0.4,NE,16.1,-,N/A,Fog,Fog,40,2012-10-07 18:55:00
9:55 PM,41.0,37.4,87,30.09,0.6,NNE,9.2,-,N/A,Fog,Fog,20,2012-10-07 19:55:00
10:55 PM,42.8,39.2,87,30.12,0.6,North,10.4,-,N/A,Fog,Fog,360,2012-10-07 20:55:00
11:00 PM,42,39,86,,1,North,10.4,,,Fog,Heavy Fog,0,2012-10-07 21:00:00
11:55 PM,42.8,35.6,76,30.12,-9999.0,North,12.7,-,N/A,,Clear,360,2012-10-07 21:55:00